Simultaneous Nadir Overpasses (SNOs) Predictions

Prediction of SNOs between METOP-B and NOAA-19 Satellite Orbit:

Table of predicted SNOs for the next 14.0 days since TLE Epoch: 5/2/2014
Index Date (METOP-B) Time (METOP-B) Lat,Lon (METOP-B) SZA (METOP-B ) Date (NOAA-19) Time (NOAA-19) Lat,Lon (NOAA-19) SZA (NOAA-19 ) Distance(km) Time Diff (sec)
1 05/03/2014 20:05:42 74.52,-125.18 58.63 05/03/2014 20:04:35 74.53,-128.22 58.72 90.24 67
2 05/03/2014 20:56:36 -73.94, 40.67 121.94 05/03/2014 20:55:22 -73.92, 40.63 121.95 1.76 74
3 05/03/2014 21:47:16 73.91,-152.06 58.03 05/03/2014 21:46:26 73.92,-152.13 58.05 2.56 50
4 05/03/2014 22:37:59 -73.87, 15.16 122.03 05/03/2014 22:37:25 -73.89, 15.20 122.00 2.63 34
5 05/03/2014 23:28:38 73.90,-177.44 57.99 05/03/2014 23:28:29 73.89,-177.56 57.99 3.70 9
6 05/04/2014 00:19:21 -73.85, -10.22 122.06 05/04/2014 00:19:28 -73.86, -10.23 122.06 0.66 7
7 05/04/2014 01:10:01 73.83, 157.06 57.91 05/04/2014 01:10:31 73.81, 157.13 57.88 3.28 30
8 05/04/2014 02:00:43 -73.83, -35.60 122.10 05/04/2014 02:01:31 -73.82, -35.66 122.12 2.05 48
9 05/04/2014 02:51:23 73.81, 131.67 57.87 05/04/2014 02:52:35 73.82, 131.58 57.88 3.10 72
10 05/04/2014 03:42:16 -73.27, -62.24 122.65 05/04/2014 03:43:24 -73.30, -59.92 122.69 74.37 68
11 05/14/2014 02:44:27 73.94, 133.69 55.32 05/14/2014 02:43:14 73.96, 133.69 55.35 2.17 73
12 05/14/2014 03:35:09 -73.94, -58.98 124.69 05/14/2014 03:34:11 -73.94, -58.99 124.69 0.49 58
13 05/14/2014 04:25:49 73.92, 108.30 55.29 05/14/2014 04:25:17 73.92, 108.26 55.29 1.34 32
14 05/14/2014 05:16:31 -73.92, -84.37 124.73 05/14/2014 05:16:14 -73.90, -84.42 124.74 2.62 17
15 05/14/2014 06:07:11 73.90, 82.92 55.25 05/14/2014 06:07:20 73.89, 82.83 55.24 2.89 9
16 05/14/2014 06:57:54 -73.85,-109.87 124.81 05/14/2014 06:58:17 -73.87,-109.85 124.79 1.96 23
17 05/14/2014 07:48:34 73.83, 57.42 55.17 05/14/2014 07:49:23 73.86, 57.40 55.19 2.78 49
18 05/14/2014 08:39:16 -73.84,-135.25 124.84 05/14/2014 08:40:20 -73.84,-135.29 124.84 1.02 64
19 05/14/2014 09:30:08 73.21, 30.66 54.57 05/14/2014 09:31:14 73.24, 33.37 54.52 87.05 66
